Time,TemperatureF,DewpointF,PressureIn,WindDirection,WindDirectionDegrees,WindSpeedMPH,WindSpeedGustMPH,Humidity,HourlyPrecipIn,Conditions,Clouds,dailyrainin,SoftwareType,DateUTC
2013-04-02 00:03:00,40.0,12.0,29.83,North,355,4.0,11.0,31,0.00,,,0.00,,2013-04-02 04:03:00,
2013-04-02 00:13:00,40.0,12.0,29.83,North,355,4.0,11.0,31,0.00,,,0.00,,2013-04-02 04:13:00,
2013-04-02 00:23:00,40.0,12.0,29.83,NW,313,5.0,14.0,31,0.00,,,0.00,,2013-04-02 04:23:00,
2013-04-02 00:33:00,39.0,10.0,29.84,NW,316,5.0,11.0,30,0.00,,,0.00,,2013-04-02 04:33:00,
2013-04-02 00:43:00,39.0,10.0,29.84,NW,316,5.0,11.0,30,0.00,,,0.00,,2013-04-02 04:43:00,
2013-04-02 00:53:00,39.0,10.0,29.84,NNW,336,5.0,13.0,30,0.00,,,0.00,,2013-04-02 04:53:00,
2013-04-02 01:02:00,39.0,11.0,29.85,NW,321,4.0,10.0,31,0.00,,,0.00,,2013-04-02 05:02:00,
2013-04-02 01:12:00,39.0,11.0,29.85,NW,321,4.0,10.0,31,0.00,,,0.00,,2013-04-02 05:12:00,
2013-04-02 01:22:00,38.0,10.0,29.85,NW,309,4.0,10.0,31,0.00,,,0.00,,2013-04-02 05:22:00,
2013-04-02 01:32:00,38.0,10.0,29.86,WNW,290,6.0,12.0,31,0.00,,,0.00,,2013-04-02 05:32:00,
2013-04-02 01:43:00,38.0,10.0,29.86,WNW,290,6.0,12.0,31,0.00,,,0.00,,2013-04-02 05:43:00,
2013-04-02 01:52:00,37.0,9.0,29.86,WNW,293,5.0,12.0,31,0.00,,,0.00,,2013-04-02 05:52:00,
2013-04-02 02:02:00,37.0,9.0,29.87,WNW,303,8.0,14.0,31,0.00,,,0.00,,2013-04-02 06:02:00,
2013-04-02 02:12:00,37.0,9.0,29.87,WNW,303,8.0,14.0,31,0.00,,,0.00,,2013-04-02 06:12:00,
2013-04-02 02:22:00,37.0,10.0,29.87,NW,318,7.0,15.0,32,0.00,,,0.00,,2013-04-02 06:22:00,
2013-04-02 02:32:00,36.0,10.0,29.87,WNW,288,3.0,9.0,34,0.00,,,0.00,,2013-04-02 06:32:00,
2013-04-02 02:42:00,36.0,10.0,29.87,WNW,288,3.0,9.0,34,0.00,,,0.00,,2013-04-02 06:42:00,
2013-04-02 02:52:00,36.0,10.0,29.87,WNW,290,4.0,9.0,34,0.00,,,0.00,,2013-04-02 06:52:00,
2013-04-02 03:02:00,36.0,11.0,29.87,West,277,2.0,8.0,35,0.00,,,0.00,,2013-04-02 07:02:00,
2013-04-02 03:13:00,36.0,11.0,29.87,West,277,2.0,8.0,35,0.00,,,0.00,,2013-04-02 07:13:00,
2013-04-02 03:22:00,35.0,11.0,29.87,WNW,292,1.0,7.0,36,0.00,,,0.00,,2013-04-02 07:22:00,
2013-04-02 03:32:00,35.0,11.0,29.87,WNW,292,2.0,4.0,37,0.00,,,0.00,,2013-04-02 07:32:00,
2013-04-02 03:43:00,35.0,11.0,29.87,WNW,292,2.0,4.0,37,0.00,,,0.00,,2013-04-02 07:43:00,
2013-04-02 03:52:00,34.0,12.0,29.87,WNW,292,0.0,3.0,39,0.00,,,0.00,,2013-04-02 07:52:00,
2013-04-02 04:02:00,33.0,15.0,29.87,WNW,292,0.0,1.0,47,0.00,,,0.00,,2013-04-02 08:02:00,
2013-04-02 04:13:00,33.0,15.0,29.87,WNW,292,0.0,1.0,47,0.00,,,0.00,,2013-04-02 08:13:00,
2013-04-02 04:22:00,32.0,15.0,29.87,WNW,292,0.0,1.0,48,0.00,,,0.00,,2013-04-02 08:22:00,
2013-04-02 04:32:00,32.0,13.0,29.87,WNW,292,2.0,4.0,45,0.00,,,0.00,,2013-04-02 08:32:00,
2013-04-02 04:42:00,32.0,13.0,29.87,WNW,292,2.0,4.0,45,0.00,,,0.00,,2013-04-02 08:42:00,
2013-04-02 04:52:00,32.0,13.0,29.87,WNW,292,1.0,4.0,45,0.00,,,0.00,,2013-04-02 08:52:00,
2013-04-02 05:02:00,32.0,15.0,29.88,WNW,292,0.0,2.0,48,0.00,,,0.00,,2013-04-02 09:02:00,
2013-04-02 05:12:00,32.0,15.0,29.88,WNW,292,0.0,2.0,48,0.00,,,0.00,,2013-04-02 09:12:00,
2013-04-02 05:22:00,31.0,14.0,29.88,WNW,292,0.0,2.0,48,0.00,,,0.00,,2013-04-02 09:22:00,
2013-04-02 05:33:00,31.0,14.0,29.88,WNW,292,0.0,2.0,49,0.00,,,0.00,,2013-04-02 09:33:00,
2013-04-02 05:43:00,31.0,14.0,29.88,WNW,292,0.0,2.0,49,0.00,,,0.00,,2013-04-02 09:43:00,
2013-04-02 05:52:00,31.0,15.0,29.88,WNW,292,0.0,2.0,50,0.00,,,0.00,,2013-04-02 09:52:00,
2013-04-02 06:03:00,31.0,15.0,29.90,WNW,292,0.0,2.0,51,0.00,,,0.00,,2013-04-02 10:03:00,
2013-04-02 06:13:00,31.0,15.0,29.90,WNW,292,0.0,2.0,51,0.00,,,0.00,,2013-04-02 10:13:00,
2013-04-02 06:23:00,31.0,14.0,29.90,WNW,288,0.0,3.0,49,0.00,,,0.00,,2013-04-02 10:23:00,
2013-04-02 06:33:00,31.0,13.0,29.90,West,266,2.0,5.0,47,0.00,,,0.00,,2013-04-02 10:33:00,
2013-04-02 06:42:00,31.0,13.0,29.90,West,266,2.0,5.0,47,0.00,,,0.00,,2013-04-02 10:42:00,
2013-04-02 06:52:00,32.0,13.0,29.90,West,268,3.0,4.0,45,0.00,,,0.00,,2013-04-02 10:52:00,
2013-04-02 07:02:00,32.0,13.0,29.91,WNW,282,3.0,7.0,44,0.00,,,0.00,,2013-04-02 11:02:00,
2013-04-02 07:12:00,32.0,13.0,29.91,WNW,282,3.0,7.0,44,0.00,,,0.00,,2013-04-02 11:12:00,
2013-04-02 07:22:00,32.0,13.0,29.91,West,281,3.0,5.0,45,0.00,,,0.00,,2013-04-02 11:22:00,
2013-04-02 07:33:00,32.0,13.0,29.92,West,281,2.0,5.0,45,0.00,,,0.00,,2013-04-02 11:33:00,
2013-04-02 07:43:00,32.0,13.0,29.92,West,281,2.0,5.0,45,0.00,,,0.00,,2013-04-02 11:43:00,
2013-04-02 07:52:00,32.0,13.0,29.92,West,281,4.0,8.0,44,0.00,,,0.00,,2013-04-02 11:52:00,
2013-04-02 08:02:00,34.0,13.0,29.93,WNW,292,6.0,9.0,41,0.00,,,0.00,,2013-04-02 12:02:00,
2013-04-02 08:12:00,34.0,13.0,29.93,WNW,292,6.0,9.0,41,0.00,,,0.00,,2013-04-02 12:12:00,
2013-04-02 08:23:00,34.0,13.0,29.93,West,281,4.0,8.0,41,0.00,,,0.00,,2013-04-02 12:23:00,
2013-04-02 08:32:00,36.0,12.0,29.94,WNW,297,6.0,11.0,37,0.00,,,0.00,,2013-04-02 12:32:00,
2013-04-02 08:42:00,36.0,12.0,29.94,WNW,297,6.0,11.0,37,0.00,,,0.00,,2013-04-02 12:42:00,
2013-04-02 08:52:00,36.0,13.0,29.94,NW,317,5.0,11.0,38,0.00,,,0.00,,2013-04-02 12:52:00,
2013-04-02 09:02:00,37.0,13.0,29.94,WNW,283,6.0,16.0,37,0.00,,,0.00,,2013-04-02 13:02:00,
2013-04-02 09:12:00,37.0,13.0,29.94,WNW,285,5.0,13.0,37,0.00,,,0.00,,2013-04-02 13:12:00,
2013-04-02 09:22:00,37.0,13.0,29.94,WNW,285,5.0,13.0,37,0.00,,,0.00,,2013-04-02 13:22:00,
2013-04-02 09:33:00,37.0,12.0,29.95,WNW,295,10.0,21.0,35,0.00,,,0.00,,2013-04-02 13:33:00,
2013-04-02 09:42:00,37.0,12.0,29.95,WNW,295,10.0,21.0,35,0.00,,,0.00,,2013-04-02 13:42:00,
2013-04-02 09:52:00,37.0,10.0,29.95,WNW,288,11.0,21.0,32,0.00,,,0.00,,2013-04-02 13:52:00,
2013-04-02 10:02:00,38.0,11.0,29.94,WNW,292,7.0,19.0,33,0.00,,,0.00,,2013-04-02 14:02:00,
2013-04-02 10:12:00,38.0,11.0,29.94,WNW,292,7.0,19.0,33,0.00,,,0.00,,2013-04-02 14:12:00,
2013-04-02 10:23:00,38.0,10.0,29.94,West,273,11.0,21.0,31,0.00,,,0.00,,2013-04-02 14:23:00,
2013-04-02 10:32:00,39.0,9.0,29.94,NNW,343,10.0,21.0,29,0.00,,,0.00,,2013-04-02 14:32:00,
2013-04-02 10:42:00,39.0,9.0,29.94,NNW,343,10.0,21.0,29,0.00,,,0.00,,2013-04-02 14:42:00,
2013-04-02 10:52:00,39.0,9.0,29.94,WNW,282,14.0,23.0,28,0.00,,,0.00,,2013-04-02 14:52:00,
2013-04-02 11:02:00,40.0,12.0,29.94,WNW,282,6.0,17.0,31,0.00,,,0.00,,2013-04-02 15:02:00,
2013-04-02 11:11:00,40.0,12.0,29.94,WNW,282,6.0,17.0,31,0.00,,,0.00,,2013-04-02 15:11:00,
2013-04-02 11:22:00,39.0,9.0,29.94,North,360,12.0,21.0,29,0.00,,,0.00,,2013-04-02 15:22:00,
2013-04-02 11:33:00,40.0,10.0,29.94,WNW,300,11.0,20.0,29,0.00,,,0.00,,2013-04-02 15:33:00,
2013-04-02 11:43:00,40.0,10.0,29.94,WNW,300,11.0,20.0,29,0.00,,,0.00,,2013-04-02 15:43:00,
2013-04-02 11:55:00,39.0,10.0,29.94,NW,308,12.0,26.0,30,0.00,,,0.00,,2013-04-02 15:55:00,
2013-04-02 12:04:00,40.0,11.0,29.94,NW,318,10.0,21.0,30,0.00,,,0.00,,2013-04-02 16:04:00,
2013-04-02 12:13:00,40.0,11.0,29.94,NW,318,10.0,21.0,30,0.00,,,0.00,,2013-04-02 16:13:00,
2013-04-02 12:24:00,40.0,11.0,29.94,WNW,300,11.0,19.0,30,0.00,,,0.00,,2013-04-02 16:24:00,
2013-04-02 12:38:00,41.0,13.0,29.93,WNW,284,8.0,21.0,31,0.00,,,0.00,,2013-04-02 16:38:00,
2013-04-02 12:44:00,41.0,13.0,29.93,WNW,284,8.0,21.0,31,0.00,,,0.00,,2013-04-02 16:44:00,
2013-04-02 12:53:00,41.0,11.0,29.93,West,264,9.0,22.0,29,0.00,,,0.00,,2013-04-02 16:53:00,
2013-04-02 13:06:00,41.0,10.0,29.93,WNW,285,12.0,22.0,27,0.00,,,0.00,,2013-04-02 17:06:00,
2013-04-02 13:13:00,41.0,10.0,29.93,WNW,285,12.0,22.0,27,0.00,,,0.00,,2013-04-02 17:13:00,
2013-04-02 13:25:00,41.0,10.0,29.93,WNW,283,10.0,18.0,28,0.00,,,0.00,,2013-04-02 17:25:00,
2013-04-02 13:35:00,42.0,9.0,29.92,NW,309,12.0,23.0,25,0.00,,,0.00,,2013-04-02 17:35:00,
2013-04-02 13:43:00,42.0,9.0,29.92,NW,309,12.0,23.0,25,0.00,,,0.00,,2013-04-02 17:43:00,
2013-04-02 13:54:00,42.0,10.0,29.92,WNW,290,12.0,22.0,26,0.00,,,0.00,,2013-04-02 17:54:00,
2013-04-02 14:04:00,43.0,10.0,29.91,West,276,13.0,22.0,25,0.00,,,0.00,,2013-04-02 18:04:00,
2013-04-02 14:13:00,43.0,10.0,29.91,West,276,13.0,22.0,25,0.00,,,0.00,,2013-04-02 18:13:00,
2013-04-02 14:23:00,43.0,10.0,29.91,NW,304,8.0,15.0,26,0.00,,,0.00,,2013-04-02 18:23:00,
2013-04-02 14:34:00,43.0,10.0,29.91,NNW,342,8.0,21.0,26,0.00,,,0.00,,2013-04-02 18:34:00,
2013-04-02 14:43:00,43.0,10.0,29.91,NNW,342,8.0,21.0,26,0.00,,,0.00,,2013-04-02 18:43:00,
2013-04-02 14:54:00,42.0,9.0,29.91,WNW,300,12.0,22.0,25,0.00,,,0.00,,2013-04-02 18:54:00,
2013-04-02 15:03:00,44.0,10.0,29.90,WNW,295,8.0,25.0,24,0.00,,,0.00,,2013-04-02 19:03:00,
2013-04-02 15:13:00,44.0,10.0,29.90,WNW,295,8.0,25.0,24,0.00,,,0.00,,2013-04-02 19:13:00,
2013-04-02 15:23:00,43.0,10.0,29.90,West,270,12.0,22.0,25,0.00,,,0.00,,2013-04-02 19:23:00,
2013-04-02 15:34:00,44.0,10.0,29.90,WNW,296,14.0,23.0,24,0.00,,,0.00,,2013-04-02 19:34:00,
2013-04-02 15:45:00,44.0,10.0,29.90,WNW,296,14.0,23.0,24,0.00,,,0.00,,2013-04-02 19:45:00,
2013-04-02 15:54:00,43.0,10.0,29.90,WSW,242,11.0,21.0,25,0.00,,,0.00,,2013-04-02 19:54:00,
2013-04-02 16:04:00,43.0,9.0,29.90,NW,314,12.0,24.0,24,0.00,,,0.00,,2013-04-02 20:04:00,
2013-04-02 16:14:00,43.0,9.0,29.90,NW,314,12.0,24.0,24,0.00,,,0.00,,2013-04-02 20:14:00,
2013-04-02 16:22:00,44.0,10.0,29.90,WNW,289,8.0,17.0,25,0.00,,,0.00,,2013-04-02 20:22:00,
2013-04-02 16:34:00,44.0,10.0,29.89,West,273,12.0,20.0,24,0.00,,,0.00,,2013-04-02 20:34:00,
2013-04-02 16:44:00,44.0,10.0,29.89,West,273,12.0,20.0,24,0.00,,,0.00,,2013-04-02 20:44:00,
2013-04-02 16:53:00,44.0,10.0,29.89,West,273,12.0,20.0,24,0.00,,,0.00,,2013-04-02 20:53:00,
2013-04-02 17:04:00,44.0,9.0,29.90,WNW,297,10.0,24.0,23,0.00,,,0.00,,2013-04-02 21:04:00,
2013-04-02 17:13:00,44.0,9.0,29.90,WNW,297,10.0,24.0,23,0.00,,,0.00,,2013-04-02 21:13:00,
2013-04-02 17:23:00,44.0,9.0,29.90,WNW,290,13.0,26.0,23,0.00,,,0.00,,2013-04-02 21:23:00,
2013-04-02 17:35:00,44.0,9.0,29.90,WNW,300,11.0,22.0,23,0.00,,,0.00,,2013-04-02 21:35:00,
2013-04-02 17:44:00,44.0,9.0,29.90,WNW,300,11.0,22.0,23,0.00,,,0.00,,2013-04-02 21:44:00,
2013-04-02 17:55:00,44.0,9.0,29.90,West,278,12.0,19.0,23,0.00,,,0.00,,2013-04-02 21:55:00,
2013-04-02 18:04:00,44.0,9.0,29.91,WNW,298,10.0,21.0,23,0.00,,,0.00,,2013-04-02 22:04:00,
2013-04-02 18:14:00,44.0,9.0,29.91,WNW,298,10.0,21.0,23,0.00,,,0.00,,2013-04-02 22:14:00,
2013-04-02 18:24:00,44.0,9.0,29.91,WNW,288,11.0,21.0,23,0.00,,,0.00,,2013-04-02 22:24:00,
2013-04-02 18:33:00,43.0,8.0,29.92,WNW,284,12.0,21.0,23,0.00,,,0.00,,2013-04-02 22:33:00,
2013-04-02 18:43:00,43.0,8.0,29.92,WNW,284,12.0,21.0,23,0.00,,,0.00,,2013-04-02 22:43:00,
2013-04-02 18:53:00,43.0,8.0,29.92,WNW,296,16.0,25.0,23,0.00,,,0.00,,2013-04-02 22:53:00,
2013-04-02 19:03:00,43.0,8.0,29.93,NW,315,9.0,19.0,23,0.00,,,0.00,,2013-04-02 23:03:00,
2013-04-02 19:13:00,43.0,8.0,29.93,NW,315,9.0,19.0,23,0.00,,,0.00,,2013-04-02 23:13:00,
2013-04-02 19:23:00,43.0,9.0,29.93,WNW,284,10.0,17.0,24,0.00,,,0.00,,2013-04-02 23:23:00,
2013-04-02 19:35:00,42.0,8.0,29.93,WNW,288,10.0,18.0,24,0.00,,,0.00,,2013-04-02 23:35:00,
2013-04-02 19:43:00,42.0,8.0,29.93,WNW,288,10.0,18.0,24,0.00,,,0.00,,2013-04-02 23:43:00,
2013-04-02 19:53:00,42.0,9.0,29.93,West,277,9.0,16.0,25,0.00,,,0.00,,2013-04-02 23:53:00,
2013-04-02 20:04:00,42.0,9.0,29.94,West,279,8.0,16.0,25,0.00,,,0.00,,2013-04-03 00:04:00,
2013-04-02 20:13:00,42.0,9.0,29.94,West,279,8.0,16.0,25,0.00,,,0.00,,2013-04-03 00:13:00,
2013-04-02 20:25:00,42.0,9.0,29.94,West,281,11.0,18.0,25,0.00,,,0.00,,2013-04-03 00:25:00,
2013-04-02 20:34:00,41.0,9.0,29.95,WNW,286,6.0,9.0,26,0.00,,,0.00,,2013-04-03 00:34:00,
2013-04-02 20:47:00,41.0,9.0,29.95,WNW,286,6.0,9.0,26,0.00,,,0.00,,2013-04-03 00:47:00,
2013-04-02 20:53:00,41.0,10.0,29.95,West,280,5.0,9.0,27,0.00,,,0.00,,2013-04-03 00:53:00,
2013-04-02 21:04:00,40.0,10.0,29.97,West,273,2.0,5.0,28,0.00,,,0.00,,2013-04-03 01:04:00,
2013-04-02 21:13:00,40.0,10.0,29.97,West,273,2.0,5.0,28,0.00,,,0.00,,2013-04-03 01:13:00,
2013-04-02 21:23:00,40.0,10.0,29.97,West,270,1.0,4.0,28,0.00,,,0.00,,2013-04-03 01:23:00,
2013-04-02 21:33:00,39.0,9.0,29.98,West,273,2.0,5.0,29,0.00,,,0.00,,2013-04-03 01:33:00,
2013-04-02 21:42:00,39.0,9.0,29.98,West,273,2.0,5.0,29,0.00,,,0.00,,2013-04-03 01:42:00,
2013-04-02 21:53:00,39.0,9.0,29.98,West,270,1.0,7.0,28,0.00,,,0.00,,2013-04-03 01:53:00,
2013-04-02 22:04:00,39.0,9.0,29.99,West,274,4.0,10.0,28,0.00,,,0.00,,2013-04-03 02:04:00,
2013-04-02 22:13:00,39.0,9.0,29.99,West,274,4.0,10.0,28,0.00,,,0.00,,2013-04-03 02:13:00,
2013-04-02 22:24:00,39.0,9.0,29.99,West,281,5.0,10.0,28,0.00,,,0.00,,2013-04-03 02:24:00,
2013-04-02 22:34:00,40.0,10.0,29.99,West,277,8.0,14.0,28,0.00,,,0.00,,2013-04-03 02:34:00,
2013-04-02 22:44:00,40.0,10.0,29.99,West,277,8.0,14.0,28,0.00,,,0.00,,2013-04-03 02:44:00,
2013-04-02 22:52:00,39.0,9.0,29.99,West,270,3.0,9.0,28,0.00,,,0.00,,2013-04-03 02:52:00,
2013-04-02 23:06:00,39.0,9.0,30.00,West,276,5.0,10.0,28,0.00,,,0.00,,2013-04-03 03:06:00,
2013-04-02 23:14:00,39.0,9.0,30.00,West,276,5.0,10.0,28,0.00,,,0.00,,2013-04-03 03:14:00,
2013-04-02 23:23:00,39.0,9.0,30.00,West,260,4.0,9.0,29,0.00,,,0.00,,2013-04-03 03:23:00,
2013-04-02 23:38:00,38.0,9.0,30.00,WNW,297,6.0,14.0,30,0.00,,,0.00,,2013-04-03 03:38:00,
2013-04-02 23:44:00,38.0,9.0,30.00,WNW,297,6.0,14.0,30,0.00,,,0.00,,2013-04-03 03:44:00,
2013-04-02 23:53:00,38.0,10.0,30.00,West,277,4.0,8.0,31,0.00,,,0.00,,2013-04-03 03:53:00,